Tracking 17265 objects as of 5-September-2015
HD Live streaming from Space Station

Track Soyuz TMA-18M
and Space Station

CHINASAT 5B (SINOSAT 1)

Track CHINASAT 5B (SINOSAT 1) now!
CHINASAT 5B (SINOSAT 1) is classified as:


NORAD ID: 25404
Int'l Code: 1998-044A
Perigee: 36,053.7 km
Apogee: 36,153.4 km
Inclination: 3.2 °
Period: 1,452.0 minutes
Semi major axis: 42474 km
RCS: 25.1188 m2 (large)
Launch date: July 18, 1998
Source: People's Republic of China (PRC)

11 C-band, broadcasting, business services, direct-to-home TV broadcasting, telecommunications, VSAT networks; Asia Pacific region.
Your satellite tracking list
Your tracking list is empty





NASA's NSSDC Master Catalog

Two Line Element Set (TLE):
1 25404U 98044A   15246.31335814 -.00000077 +00000-0 +00000-0 0  9991
2 25404 003.1555 069.4206 0011726 117.0003 180.7177 00.99176723062825

Source of the keplerian elements: AFSPC

N2YO: 336